Location: Beaver Meadows
(40.3729°N, 105.6140°W)
Time: 03:13:47
(UTC-06:00)

Iridium 67 - Visible Passes

Search period start: 02 September 2014 00:00
Search period end: 12 September 2014 00:00
Orbit: 776 x 779 km, 86.4° (Epoch: 01 September)

Date Brightness Start Highest point End Pass type
(mag) Time Alt. Az. Time Alt. Az. Time Alt. Az.
02 Sep 6.3 20:52:50 24° ESE 20:54:42 30° E 20:59:12 10° NNE visible
02 Sep 7.2 22:33:16 22° WSW 22:35:21 29° W 22:39:51 10° NNW visible
03 Sep 7.0 20:18:56 12° ESE 20:21:27 17° E 20:24:41 10° NE visible
03 Sep 6.1 21:59:22 30° SW 22:01:40 53° W 22:06:46 10° N visible
04 Sep 5.4 21:25:23 29° S 21:28:07 83° E 21:33:20 10° N visible
04 Sep 8.4 23:08:13 10° W 23:09:30 11° WNW 23:10:48 10° WNW visible
05 Sep 5.8 20:51:19 19° SSE 20:54:41 44° E 20:59:35 10° NNE visible
05 Sep 7.8 22:31:48 10° SW 22:35:36 20° WNW 22:39:26 10° NNW visible
06 Sep 6.6 20:17:16 10° SE 20:21:22 24° E 20:25:28 10° NNE visible
06 Sep 6.9 21:57:32 12° SW 22:01:50 37° W 22:06:38 10° NNW visible
07 Sep 5.8 21:23:10 11° S 21:28:12 69° W 21:33:24 10° N visible
08 Sep 5.5 20:49:35 10° S 20:54:42 65° E 20:59:51 10° N visible
08 Sep 8.3 22:33:12 10° WSW 22:35:54 14° WNW 22:38:37 10° NW visible
09 Sep 6.1 20:16:40 10° SSE 20:21:19 34° E 20:25:58 10° NNE visible
09 Sep 7.5 21:57:47 10° SW 22:02:03 26° WNW 22:06:22 10° NNW visible
10 Sep 6.9 19:44:29 10° ESE 19:48:03 19° E 19:51:37 10° NE visible
10 Sep 6.5 21:23:22 10° SSW 21:28:21 47° W 21:33:21 10° N visible
11 Sep 5.5 20:49:34 10° S 20:54:46 87° W 20:59:59 10° N visible
